Regional Weather Roundup
Issued by NWS Wakefield, VA

Home | Current Version | Previous Version | Text Only | Print | Product List | Glossary Off
Versions: 1 2 3 4 5 6 7 8 9 10 11 12 13 14 15 16 17 18 19 20 21 22 23 24 25 26 27

000
ASUS41 KAKQ 251215
RWRAKQ

REGIONAL WEATHER ROUNDUP
NATIONAL WEATHER SERVICE WAKEFIELD VA
800 AM EDT WED APR 25 2018

Note: "fair" indicates few or no clouds below 12,000 feet with no
significant weather and/or obstructions to visibility. * = Denotes
station may not report precipitation (e.g., rain,snow,etc.),
thunder or fog.

VAZ042-051-052>054-056-251300-
NORTHERN VIRGINIA

CITY           SKY/WX    TMP DP  RH WIND       PRES   REMARKS
WASH NATIONAL  DRIZZLE   58  56  93 N8        29.79F FOG
DULLES         CLOUDY    53  53 100 N7        29.81S FOG
FORT BELVOIR   CLOUDY    57  55  94 NW3       29.79S FOG
QUANTICO       LGT RAIN  58  58 100 N6        29.79F FOG
FREDERICKSBRG* DRIZZLE   56  56 100 N6        29.78S
STAFFORD*      DRIZZLE   56  56 100 NW5       29.82F
WARRENTON      HVY RAIN  55  52  90 N3        29.80S
CULPEPER*      DRIZZLE   54  53  94 N8        29.81S
MANASSAS*      CLOUDY    54  53  97 N9        29.81R FOG
LEESBURG*      CLOUDY    50  50 100 N8        29.83S FOG
WINCHESTER     FOG       50  48  93 N3        29.85S VSB 1
FRONT ROYAL*   CLOUDY    50  50 100 N3        29.83S VSB 3/4
LURAY*         CLOUDY    52  50  93 NE7       29.83R
$$

VAZ048-049-060>072-079>083-251300-
CENTRAL AND SOUTH CENTRAL VIRGINIA

CITY           SKY/WX    TMP DP  RH WIND       PRES   REMARKS
RICHMOND       FOG       59  59 100 E5        29.75S VSB 3/4
CHESTERFIELD*  LGT RAIN  59  59 100 CALM      29.76S FOG
PETERSBURG*    CLOUDY    61  59  94 E3        29.76S
HANOVER        CLOUDY    57  57 100 N3        29.77S FOG
TAPPAHANNOCK*  FOG       59  59 100 CALM      29.77S VSB 1/2
QUINTON*       CLOUDY    58  58 100 E13G18    29.75S
CHARLOTTSVILLE CLOUDY    55  53  93 N6        29.79S
GORDONSVILLE*  CLOUDY    53  53 100 NE3       29.78F FOG
ORANGE*        CLOUDY    52  52 100 N6        29.79S FOG
LOUISA*        LGT RAIN  52  52  99 N8        29.82S FOG
BUMPASS*       NOT AVBL
FARMVILLE*     CLOUDY   N/A N/A N/A N5        29.76F FOG
CREWE*         CLOUDY    55  55 100 N3        29.76F VSB 1
FORT PICKETT*  CLOUDY    56  56 100 NW6       29.75F VSB 1/2
CHASE CITY*    CLOUDY    56  56 100 N5        29.76R
CLARKSVILLE*   CLOUDY    61  61 100 E3        29.75R
SOUTH HILL*    CLOUDY    60  60 100 CALM      29.80S
LAWRENCEVILLE* CLOUDY    61  60  97 CALM      29.74F
EMPORIA*       CLOUDY    61  61 100 CALM      29.76S
$$

VAZ088>098-251300-
SOUTHEAST VIRGINIA

CITY           SKY/WX    TMP DP  RH WIND       PRES   REMARKS
NORFOLK        FOG       60  60 100 S5        29.75S VSB 3/4
VIRGINIA BEACH FOG       59  59 100 S5        29.75S VSB 1/4
NORFOLK NAVAL  CLOUDY    60  59  96 S6        29.76S FOG
WEST POINT*    CLOUDY    59  58  96 E5        29.77S
SALUDA*        CLOUDY    56  56 100 CALM      29.76S VSB<1/4
NEWPORT NEWS   FOG       59  58  96 CALM      29.75F VSB 3/4
LANGLEY AFB    CLOUDY    58  58 100 CALM      29.75S FOG
FORT EUSTIS    CLOUDY    58  58  98 CALM      29.73S FOG
WILLIAMSBURG*  CLOUDY    61  61 100 CALM      29.76F
HR EXEC AP*    FOG       60  59  96 CALM      29.76S VSB 3/4
FRANKLIN*      CLOUDY    60  59  98 SW3       29.75S FOG
US460-WAKEFLD  FOG       60  60 100 CALM      29.75S VSB 1/4
$$

VAZ020-022-025-037-045-251300-
WEST CENTRAL AND SOUTHWEST VIRGINIA

CITY           SKY/WX    TMP DP  RH WIND       PRES   REMARKS
STAUNTON*      CLOUDY    50  49  95 N9        29.84S
WAYNESBORO*    CLOUDY    49  49  99 N5        29.82S
HOT SPRINGS VA CLOUDY    39  39 100 N6        29.82S
LYNCHBURG      CLOUDY    53  52  96 NE9       29.77S FOG
DANVILLE       CLOUDY    54  54 100 N6        29.76R
SOUTH BOSTON*  CLOUDY    56  55  96 N3        29.76R
MARTINSVILLE   CLOUDY    54  52  95 N5        29.80R
ROANOKE        LGT RAIN  54  51  90 N7        29.81R
BLACKSBURG     DRIZZLE   51  51  99 CALM      29.84R
DUBLIN*        DRIZZLE   53  52  95 NW3       29.83R
MARION*        DRIZZLE   54  53  98 W8        29.86R
HILLSVILLE*    LGT RAIN  50  49  96 NW9       29.81R
RICHLANDS*     HAZE      51  28  40 NW6       29.86R VSB<1/4
WISE*          CLOUDY    50  50 100 W7G16     29.89R
ABINGDON*      CLOUDY    55  53  94 NW7       29.86R FOG
$$

MDZ021>025-VAZ099-100-251300-
SOUTHERN MARYLAND AND THE DELMARVA PENINSULA

CITY           SKY/WX    TMP DP  RH WIND       PRES   REMARKS
PATUXENT RIVER FOG       60  58  92 E9        29.76F VSB 1/4
BAY BRIDGE APT FOG       57  57 100 NE6       29.79S VSB 1
LEONARDTOWN    CLOUDY    57  57 100 E3        29.78F VSB 1/4
DOVER          CLOUDY    56  56 100 E6        29.79F
GEORGETOWN     CLOUDY    59  58  96 NE7       29.77F
EASTON         CLOUDY    59  57  94 E3        29.81F FOG
CAMBRIDGE      CLOUDY    59  59 100 E7        29.77S
SALISBURY      FOG       58  58 100 E5        29.76F VSB 3/4
TANGIER        CLOUDY    57  57 100 E7        29.75S VSB 1/4
OCEAN CITY     FOG       53  53 100 SW5       29.77F VSB 1/4
WALLOPS ISLAND CLOUDY    57  57 100 S5        29.77S FOG
ACCOMACK*      CLOUDY    58  57  99 SE5       29.76R FOG
$$

NCZ012>017-030>032-251300-
NORTH CENTRAL AND EASTERN NORTH CAROLINA

CITY           SKY/WX    TMP DP  RH WIND       PRES   REMARKS
ROANOKE RAPIDS CLOUDY    61  61 100 CALM      29.75S FOG
RALEIGH        CLOUDY    61  60  97 CALM      29.75R
ELIZABETH CITY PTSUNNY   63  62  97 S6        29.76S
AHOSKIE*       CLOUDY    60  60 100 CALM      29.75S FOG
EDENTON*       NOT AVBL
CURRITUCK*     NOT AVBL
KILL DEVIL HLS FAIR      62  61  98 MISG      29.76F
MANTEO         FAIR      62  60  92 S7        29.77F
CAPE HATTERAS  FAIR      68  64  87 SW9       29.79S
TARBORO*       NOT AVBL
GOLDSBORO      CLOUDY    61  59  94 SW3       29.74R
WASHINGTON     CLOUDY    61  60  96 CALM      29.76S FOG
GREENVILLE     CLOUDY    61  61 100 S5        29.79R
NEW BERN       FAIR      61  60  97 S8        29.78R
WILMINGTON     PTSUNNY   62  57  83 SW12      29.79R
$$

VAZ048-251300-
ELSEWHERE

CITY           SKY/WX    TMP DP  RH WIND       PRES   REMARKS
HARRISBURG PA  LGT RAIN  54  52  93 CALM      29.83F FOG
BALTIMORE      DRZL/FOG  57  57 100 NE6       29.79F VSB 1
ANNAPOLIS      FOG       59  59 100 NE6       29.78F VSB 1
ANDREWS AFB    DRZL/FOG  57  57 100 NE3       29.78S VSB 3/8
PHILADELPHIA   CLOUDY    56  55  97 E12       29.85F FOG
HENDERSON NC   CLOUDY    57  57  97 E3        29.75R FOG
GREENSBORO     CLOUDY    54  54 100 N9        29.74S FOG
ROCKY MOUNT    CLOUDY    61  60  97 S3        29.75S FOG
$$

VAZ100-251300-
MARINE

STATION/POSITION TIME  TEMP    WIND        PRES    WAVE   SWELL
                       AIR SEA DIR/SP/G            HT/PER HT/PER
                 (UTC) (F)     (DEG/KT/KT) (MB)    (FT/S) (FT/S)
BRANDYWINE LGT   1142   57     130/ 21/ 24 1009.2S
CAPE MAY NJ      1142   56 52  110/ 17/ 21 1008.3F
LEWES DE         1142   55 51  120/  8/ 12 1008.4F
15NM E FENWICK I 1150   47 47  100/  6/ 10 1008.8F   9/10   8/10
OCEAN-CITY-INLET 1142   52 50  180/  5/  7 1008.6F
WACHAPREAGUE VA  1142   54 55   90/  3/  3 1008.0R
THOMAS POINT MD  1200   57 53   30/  6/  7 1009.5F
GOOSES REEF MD   1150   56      20/  4/  4 1008.9S
COVE POINT MD    1142   56     310/  2/  2 1008.6F
SOLOMONS ISLAND  1142   57 54   90/  4/  5 1007.6F
BISHOPS HEAD MD  1142   58 57   80/  5/  7 1008.1F
PINEY POINT MD   1142          110/  4/  4   N/A
POTOMAC MD       1150   56      80/  4/  4 1009.0F
CAMBRIDGE MD     1142   58 55              1009.0F
LEWISETTA VA     1142   56 55   40/  3/  4 1007.6F
RAPPAHANNOCK LGT 1142           90/ 12/ 12 1007.8F
YORK RVR RNG VA  1142   56     220/  2/  2 1008.1R
YORKTOWN VA      1142   56 56   80/  2/  3 1007.2F
DOMINION TERM VA 1142   58      CALM  /  3 1007.6F
KIPTOPEKE VA     1142      55  160/  8/  9   N/A
CAPE HENRY VA    1142   59     180/  5/  8   N/A
WILLOUBY STN VA  1142   56      70/  2/  2 1007.5S
S CRANEY ISL VA  1142   59        CALM     1007.3R
CAPE HENRY BUOY  1130      53                N/A     6/11   3/11
64NM E OF VA BCH 1150   52 49  180/  8/ 10 1008.9R  13/11  13/11
DUCK PIER NC     1142   54 50  140/  9/ 10 1007.6R
44100 DUCK FRF   1145      52                N/A    10/10   5/11
44056 DUCK FRF   1130      51                N/A     6/10   3/11
OREGON INLET NC  1142   62 54  170/  8/ 10 1008.0S
HATTERAS NC      1142   67 63  210/  8/ 11 1008.3S
DIAMOND SHLS NC  1150   70 70  220/ 12/ 17 1009.0R  11/10  10/10
CAPE LOOKOUT NC  1100          210/  9/ 10 1008.8R
$$




USA.gov is the U.S. government's official web portal to all federal, state and local government web resources and services.